This is the latest recevied weather packets stored in our database for station/object BG5HLN-13. If no packets are shown the sender has not sent any weather packets the latest 10 day(s).
| Time | Temp. | Humidity | Pressure | Rain* | Wind** | Luminosity | Snow |
|---|---|---|---|---|---|---|---|
| 1777364212 | 20° C | 65% | 1014.9 hPa | 0 mm | - | - | - |
| 1777363611 | 20° C | 64% | 1014.6 hPa | 0 mm | - | - | - |
| 1777363012 | 20° C | 63% | 1014.5 hPa | 0 mm | - | - | - |
| 1777362583 | 20° C | 62% | 1014.7 hPa | 0 mm | - | - | - |
| 1777362412 | 20° C | 62% | 1014.9 hPa | 0 mm | - | - | - |
| 1777361812 | 20.56° C | 61% | 1015 hPa | 0 mm | - | - | - |
| 1777361212 | 20.56° C | 63% | 1014.9 hPa | 0 mm | - | - | - |
| 1777360783 | 20.56° C | 64% | 1015.2 hPa | 0 mm | - | - | - |
| 1777360611 | 20.56° C | 64% | 1015.2 hPa | 0 mm | - | - | - |
| 1777360012 | 21.11° C | 68% | 1015.5 hPa | 0 mm | - | - | - |
| 1777359412 | 21.11° C | 68% | 1015.7 hPa | 0 mm | - | - | - |
| 1777358991 | 21.11° C | 63% | 1015.7 hPa | 0 mm | - | - | - |
| 1777358812 | 21.11° C | 62% | 1015.8 hPa | 0 mm | - | - | - |
| 1777358211 | 21.11° C | 60% | 1015.7 hPa | 0 mm | - | - | - |
| 1777357611 | 21.11° C | 62% | 1015.7 hPa | 0 mm | - | - | - |
| 1777357190 | 21.11° C | 62% | 1015.6 hPa | 0 mm | - | - | - |
| 1777357012 | 21.11° C | 62% | 1015.6 hPa | 0 mm | - | - | - |
| 1777356411 | 21.11° C | 62% | 1015.7 hPa | 0 mm | - | - | - |
| 1777355811 | 21.67° C | 62% | 1015.8 hPa | 0 mm | - | - | - |
| 1777355391 | 21.67° C | 62% | 1015.8 hPa | 0 mm | - | - | - |
| 1777355211 | 22.22° C | 63% | 1015.8 hPa | 0 mm | - | - | - |
| 1777354612 | 22.22° C | 62% | 1015.8 hPa | 0 mm | - | - | - |
| 1777354011 | 22.22° C | 62% | 1015.8 hPa | 0 mm | - | - | - |
| 1777353590 | 22.22° C | 61% | 1015.7 hPa | 0 mm | - | - | - |
| 1777353411 | 22.22° C | 61% | 1015.6 hPa | 0 mm | - | - | - |
* Rain latest hour (hover to see other rain measurements)
** Current wind speed in m/s (hover to see current wind gust speed)